EHI
0 0 0 0 0 0 0 0 0 0 0 0 0 0 0 0 0 0 0 0 0 0 0 0 0 0 0 0 0 0 0 0 0 0 1 2 2 3 5 5 3 1 0
0 0 0 0 0 0 0 0 0 0 0 0 0 0 0 0 0 0 0 0 0 0 0 0 0 0 0 0 0 0 0 0 0 0 0 1 1 3 4 3 2 1 0
0 0 0 0 0 0 0 0 0 0 0 0 0 0 0 0 0 0 0 0 0 0 0 0 0 0 0 0 0 0 0 0 0 0 0 0 1 2 2 1 1 0 1
0 0 0 0 0 0 0 0 0 0 0 0 0 0 0 0 0 0 0 0 0 0 0 0 0 0 0 0 0 0 0 0 0 0 0 0 0 1 1 0 0 0 1
0 0 0 0 0 0 0 0 0 0 0 0 0 0 0 0 0 0 0 0 0 0 0 0 0 0 0 0 0 0 0 0 0 0 0 0 0 0 0 0 0 0 1
0 0 0 0 0 0 0 0 0 0 0 0 0 0 0 0 0 0 0 0 0 0 0 0 0 0 0 0 0 0 0 0 0 0 0 1 1 1 1 2 1 0 0
0 0 0 0 1 0 0 0 0 0 0 0 0 0 0 0 0 0 0 0 0 0 0 0 0 0 0 0 0 0 0 0 0 0 0 1 2 2 2 3 2 1 0
0 0 0 0 0 0 0 0 0 0 0 0 0 0 0 0 0 0 0 0 0 0 0 0 0 0 0 0 0 0 0 0 0 0 0 0 1 1 1 2 2 1 0
0 0 0 0 0 0 0 0 0 0 0 0 0 0 0 0 0 0 0 0 0 0 0 0 0 0 0 0 0 0 0 0 0 0 0 0 0 0 0 1 1 0 0
0 0 0 0 0 0 0 0 0 0 0 0 0 0 0 0 0 0 0 0 0 0 0 0 0 0 0 0 0 0 0 0 0 0 0 0 0 0 1 1 1 0 0
0 0 0 0 0 0 0 0 0 0 0 0 0 0 0 0 0 0 0 0 0 0 0 0 0 0 0 0 0 0 0 0 0 0 0 0 0 0 1 2 1 0 0
0 0 0 0 0 0 0 0 0 0 0 0 0 0 0 0 0 0 0 0 0 0 0 0 0 0 0 0 0 0 0 0 0 0 0 0 0 0 0 1 1 0 0
0 0 0 0 0 0 0 0 0 0 0 0 0 0 0 0 0 0 0 0 0 0 0 0 0 0 0 0 0 0 0 0 0 0 0 0 0 0 0 0 0 0 0
0 0 0 0 0 0 0 0 0 0 0 0 0 0 0 0 0 0 0 0 0 0 0 0 0 0 0 0 0 0 0 0 0 0 0 0 0 0 0 0 0 0 0
0 0 0 0 0 0 0 0 0 0 0 0 0 0 0 0 0 0 0 0 0 0 0 0 0 0 0 0 0 0 0 0 0 0 0 0 0 0 0 0 0 0 0
0 0 0 0 0 0 0 0 0 0 0 0 0 0 0 0 0 0 0 0 0 0 0 0 0 0 0 0 0 0 0 0 0 0 0 0 0 0 0 0 0 0 0
0 0 0 0 0 0 0 0 0 0 0 0 0 0 0 0 0 0 0 0 0 0 0 0 0 0 0 0 0 0 0 0 0 0 0 0 0 0 0 0 0 0 0
0 0 0 0 0 0 0 0 0 0 0 0 0 0 0 0 0 0 0 0 0 0 0 0 0 0 0 0 0 0 0 0 0 0 0 0 0 0 0 0 0 0 0
0 0 0 0 0 0 0 0 0 0 0 0 0 0 0 0 0 0 0 0 0 0 0 0 0 0 0 0 0 0 0 0 0 0 0 0 0 0 0 0 0 0 0
0 0 0 0 0 0 0 0 0 0 0 0 0 0 0 0 0 0 0 0 0 0 0 0 0 0 0 0 0 0 0 0 0 0 0 0 0 0 0 0 0 0 0
0 0 0 0 0 0 0 0 0 0 0 0 0 0 0 0 0 0 0 0 0 0 0 0 0 0 0 0 0 0 0 0 0 0 0 0 0 0 0 0 0 0 0
0 0 0 0 0 0 0 0 0 0 0 0 0 0 0 0 0 0 0 0 0 0 0 0 0 0 0 0 0 0 0 0 0 0 0 0 0 0 0 0 0 0 0
0 0 0 0 0 0 0 0 0 0 0 0 0 0 0 0 0 0 0 0 0 0 0 0 0 0 0 0 0 0 0 0 0 0 0 0 0 0 0 0 0 0 0
0 0 0 0 0 0 0 0 0 0 0 0 0 0 0 0 0 0 0 0 0 0 0 0 0 0 0 0 0 0 0 0 0 0 0 0 0 0 0 0 0 0 0
0 0 0 0 0 0 0 0 0 0 0 0 0 0 0 0 0 0 0 0 0 0 0 0 0 0 0 0 0 0 0 0 0 0 0 0 0 0 0 0 0 0 0
0 0 0 0 0 0 0 0 0 0 0 0 0 0 0 0 0 0 0 0 0 0 0 0 0 0 0 0 0 0 0 0 0 0 0 0 0 0 0 0 0 0 0
Wind_Speed
2 2 2 2 2 2 2 2 3 3 3 3 2 2 2 2 1 1 2 5 4 4 4 3 3 2 2 3 3 4 6 7 7 7 8 9 10 10 10 11 11 12 13
2 2 2 2 2 2 2 2 3 2 2 1 2 2 2 2 1 0 1 3 4 4 4 4 4 3 3 3 4 5 6 7 7 7 8 9 9 10 10 11 11 11 11
2 3 3 3 2 3 3 3 4 3 2 2 1 1 1 1 1 1 0 2 3 4 5 5 4 4 3 4 6 6 7 7 7 7 7 8 8 9 10 10 11 10 10
4 3 3 3 3 3 3 2 2 3 3 2 2 2 1 1 1 1 1 1 2 2 4 5 5 4 4 5 6 7 8 7 8 7 7 7 8 9 9 10 10 9 9
4 3 2 2 3 3 3 4 3 2 2 3 2 1 1 1 1 1 1 1 1 2 3 5 6 5 5 6 6 7 7 8 8 7 7 8 9 9 9 10 10 10 10
4 3 2 3 3 3 3 3 3 3 2 2 3 2 1 1 0 1 1 1 0 1 3 3 4 4 5 6 6 7 8 8 8 8 8 9 9 9 9 9 10 10 10
3 3 3 3 3 2 3 3 3 3 3 2 2 2 2 1 1 0 0 1 1 1 2 3 2 3 3 5 6 7 8 9 9 8 9 10 9 9 9 9 10 10 10
3 3 3 2 2 2 3 3 3 2 2 2 1 1 1 2 2 0 0 0 0 1 1 2 2 3 3 3 4 7 7 8 9 10 10 10 10 9 9 9 10 10 10
2 2 3 3 3 2 1 2 2 2 2 3 1 1 0 1 2 1 0 0 1 0 0 0 1 1 4 4 4 5 6 7 8 10 10 10 10 10 10 10 10 10 10
1 1 2 3 3 2 2 3 2 2 2 2 2 1 1 0 0 2 2 1 0 1 1 1 1 1 2 3 4 6 6 6 7 8 10 10 10 10 10 10 10 10 10
0 0 1 2 2 2 2 2 2 2 1 2 2 2 2 1 1 1 1 1 1 0 0 1 1 1 2 3 3 5 7 6 6 7 8 10 10 10 10 10 10 10 11
1 0 0 1 1 1 2 1 1 2 1 2 2 1 1 1 1 1 0 1 0 1 1 1 1 0 1 2 3 6 7 7 6 6 6 7 8 9 10 10 10 11 11
0 0 1 0 1 1 2 2 2 2 1 1 1 1 1 1 1 1 0 1 1 1 1 1 1 1 1 2 2 7 7 7 6 6 6 6 7 8 9 10 10 10 11
0 1 1 0 0 1 2 2 2 2 2 1 2 1 1 1 1 0 0 0 1 1 0 1 1 1 1 2 2 6 5 8 7 6 6 6 6 7 7 8 8 9 10
0 1 1 1 0 0 1 1 1 2 2 2 2 2 1 1 1 0 0 0 1 0 1 0 1 1 1 2 3 3 4 7 7 7 7 7 6 6 6 6 6 7 7
1 1 2 2 1 1 1 1 1 2 2 2 1 2 1 1 1 0 1 1 1 1 1 1 0 1 1 2 3 2 4 8 8 8 8 8 7 7 6 6 6 6 6
2 2 2 1 1 1 1 1 2 1 2 2 2 1 1 1 1 1 1 1 1 1 1 1 0 1 1 1 1 1 3 4 5 9 9 8 8 8 7 7 7 7 6
2 2 2 2 2 1 1 1 2 2 2 2 2 2 2 1 1 1 1 1 1 1 1 1 1 0 1 2 2 2 2 3 3 8 9 9 9 8 8 7 7 6 7
3 2 2 2 2 2 2 2 2 2 3 3 2 2 2 2 2 2 1 1 1 1 1 2 1 1 1 1 1 1 2 1 3 6 8 9 9 9 8 8 7 7 7
3 3 2 2 2 2 2 1 2 3 3 3 3 2 2 2 2 2 2 2 2 2 1 1 2 1 1 1 1 1 1 1 2 3 4 5 7 9 9 8 8 7 7
3 3 3 2 2 2 1 2 3 4 4 3 3 3 3 3 3 2 1 1 1 1 1 2 2 2 2 1 2 1 1 1 1 2 2 3 3 3 5 7 8 8 8
2 3 3 3 3 2 1 1 2 4 4 4 4 3 3 4 5 6 5 4 3 2 2 2 2 2 3 3 2 2 2 1 1 1 2 2 3 3 4 4 7 9 9
2 3 3 3 3 2 2 3 4 4 5 5 4 4 4 3 4 4 6 7 7 8 6 3 3 3 3 3 3 2 2 3 3 3 3 2 2 2 3 4 8 9 9
3 3 3 4 3 3 4 4 5 5 5 5 4 4 4 3 3 3 3 4 5 6 7 6 4 4 3 2 3 3 3 2 1 1 3 2 2 2 2 3 7 8 8
3 3 3 4 4 4 5 5 4 4 4 5 5 4 4 3 3 3 3 4 4 5 7 7 7 6 5 5 4 2 2 2 1 2 2 3 2 1 1 2 4 8 8
4 4 4 4 4 4 5 6 5 3 4 5 4 4 5 4 4 4 4 4 5 4 4 4 5 6 6 6 7 5 4 4 3 2 3 3 3 2 1 1 2 3 3
Wind_Direction
4 0 348 5 343 347 346 332 321 336 343 350 342 343 359 341 27 73 137 150 152 164 171 166 152 137 123 103 100 102 99 108 110 116 118 121 122 124 125 128 132 134 139
8 1 352 359 352 335 325 320 324 336 334 329 327 337 340 321 10 123 159 151 161 172 173 163 153 150 144 120 113 115 112 115 116 117 119 121 124 127 128 131 134 136 137
9 20 358 359 348 339 342 347 340 339 322 327 330 321 338 319 325 303 215 168 168 180 175 166 150 147 153 137 121 120 121 121 121 122 123 126 130 131 132 133 133 135 136
22 27 2 349 339 352 353 346 342 343 342 345 335 326 342 317 297 282 296 224 172 164 170 166 154 144 146 140 133 125 123 125 125 126 129 136 135 135 135 136 137 138 137
10 26 351 335 359 8 354 343 5 353 342 337 311 303 342 336 333 343 322 300 151 141 147 162 156 149 147 146 142 138 130 133 132 130 133 141 137 134 136 138 142 141 139
13 13 342 12 8 4 350 344 352 342 316 302 314 345 331 282 14 15 330 344 20 126 142 147 156 159 153 151 151 149 146 140 139 135 129 131 133 138 140 139 145 146 145
17 8 0 4 8 6 350 357 352 340 332 335 345 335 324 288 116 145 312 333 3 56 121 140 156 155 154 154 155 152 154 154 150 146 142 138 138 142 143 144 148 151 150
16 3 3 353 0 357 2 352 348 347 326 336 346 354 343 353 352 140 207 206 58 47 58 160 167 154 151 146 156 159 159 159 160 160 158 152 151 153 153 152 152 154 156
28 13 355 352 347 359 358 336 356 356 323 323 355 31 13 327 314 320 298 84 83 71 331 63 123 120 142 141 144 158 159 164 166 170 168 163 162 163 163 162 159 159 161
60 22 349 339 342 352 359 354 20 343 334 325 330 330 303 109 97 333 331 9 75 77 35 37 66 72 123 131 133 146 152 158 167 172 171 171 172 172 172 172 170 168 167
173 123 3 335 337 346 359 4 356 349 344 333 326 327 337 339 281 163 303 319 359 21 103 81 77 68 94 125 134 144 151 158 166 173 176 177 181 182 181 179 179 177 177
222 188 211 315 337 349 342 342 327 335 327 329 325 330 343 342 332 4 304 289 256 255 132 106 108 117 115 120 140 143 155 158 162 164 167 176 179 183 186 186 184 183 183
257 292 354 339 357 347 334 341 338 320 313 332 318 314 323 314 321 353 27 320 326 265 143 125 144 143 129 127 141 157 165 160 160 164 169 173 176 178 185 188 188 189 191
280 54 313 331 6 340 337 351 333 327 337 333 317 310 292 307 322 357 131 64 345 322 148 174 148 145 129 133 161 168 169 168 167 166 168 170 172 173 179 186 188 192 194
294 348 312 304 262 260 316 344 322 324 331 327 317 318 307 286 294 328 344 153 155 319 304 231 134 162 153 136 156 172 163 174 172 170 172 174 174 173 172 177 185 193 196
296 283 285 287 269 224 223 224 285 302 314 301 288 300 310 297 298 257 245 266 209 180 227 277 193 171 172 156 167 180 171 173 180 178 176 176 178 179 179 182 187 193 197
258 257 266 285 294 272 252 237 244 257 277 285 282 260 252 260 283 280 247 251 260 166 195 271 296 157 150 153 155 203 173 176 184 187 184 182 182 185 187 191 194 197 200
260 261 258 252 271 278 274 263 262 257 248 260 267 266 255 238 245 263 259 246 249 227 189 219 256 243 190 181 179 211 201 179 175 186 187 187 187 188 188 188 191 194 195
273 273 270 264 261 264 263 269 271 265 253 242 242 246 249 233 238 229 222 233 248 250 213 200 234 232 242 212 186 222 221 198 189 179 182 187 188 187 186 185 185 189 188
298 297 293 286 279 282 287 302 297 283 270 254 237 226 229 219 234 242 230 232 231 238 240 213 213 218 224 230 186 207 228 218 208 174 169 176 186 189 188 185 184 185 183
301 304 303 300 297 292 319 355 327 309 300 282 260 231 218 205 204 216 227 245 253 241 237 216 215 213 214 194 201 203 200 224 223 173 154 168 170 180 187 191 188 185 181
296 305 302 297 292 301 341 305 295 300 300 293 285 262 226 212 209 218 224 219 211 221 234 227 227 217 214 199 193 191 184 173 235 206 154 187 171 182 184 180 183 184 182
285 284 282 282 276 268 250 268 277 280 279 279 281 279 274 235 206 212 225 231 234 233 226 216 227 234 218 203 186 195 196 190 206 200 152 194 185 180 174 163 168 174 178
289 270 269 273 265 254 238 245 270 268 271 271 268 267 269 256 232 223 220 222 229 230 228 224 227 233 223 201 188 192 198 206 238 211 153 172 185 170 143 141 165 169 174
289 284 275 269 266 256 238 237 245 267 271 272 269 270 271 262 252 242 240 243 242 237 224 220 214 218 213 212 190 159 186 178 213 223 180 159 168 148 136 151 172 176 175
270 277 280 270 266 260 248 240 227 252 268 273 267 257 257 257 275 249 238 242 245 245 226 216 220 225 221 218 206 193 192 188 190 206 195 158 162 138 136 154 150 166 171